Flag for Germany Weather past 2 weeks in Bergisch Gladbach, North Rhine-Westphalia, Germany

46 °F

More clouds than sun.

Feels Like: 42 °F
Forecast: 49 / 55 °F
Wind: 9 mph from West

Location: Koeln / Bonn

Current Time: Nov 30, 2015 at 9:56:07 AM

Latest Report: Nov 30, 2015 at 8:50 AM

Visibility: N/A

Pressure: 30.12 "Hg

Humidity: 82%

Dew point: 41 °F

Location of Bergisch GladbachLocation

Historic Weather in Bergisch Gladbach — Graph


Bergisch Gladbach temperature yesterday

Maximum temperature yesterday: 54 °F (at 5:50 PM)
Minimum temperature yesterday: 43 °F (at 1:50 AM)
Average temperature yesterday: 49 °F

Past Weeks' High & Low Weather Summary

High61 °F (Nov 15, 11:50 AM)100% (Nov 16, 11:20 PM)30.27 "Hg (Nov 16, 11:20 PM)
Low30 °F (Nov 26, 11:20 PM)59% (Nov 18, 9:50 AM)29.39 "Hg (Nov 21, 1:50 PM)
Average45 °F86%29.89 "Hg
* Reported Nov 15 7:20 AM — Nov 30 7:50 AM, Bergisch Gladbach, Weather by CustomWeather, © 2015

Note: Actual official high and low records may vary slightly from our data, if they occured in-between our weather recording intervals... More about our weather records


Bergisch Gladbach weather history for previous 24 hours

Time TempWeatherWind HumidityBarometerVisibility
7:50 AM
Mon, Nov 30
46 °FPartly cloudy.9 mph82%30.09 "HgN/A
7:20 AM46 °FPartly cloudy.10 mph82%30.09 "HgN/A
6:50 AM46 °FClear.10 mph82%30.07 "Hg10 mi
6:20 AM46 °FPartly cloudy.13 mph82%30.07 "HgN/A
5:50 AM48 °FPassing clouds.13 mph76%30.07 "HgN/A
5:20 AM46 °FPassing clouds.14 mph87%30.04 "HgN/A
4:50 AM46 °FPassing clouds.12 mph93%30.04 "HgN/A
4:20 AM48 °FPassing clouds.10 mph87%30.01 "HgN/A
3:50 AM48 °FLight rain. Passing clouds.14 mph87%30.01 "HgN/A
3:20 AM48 °FLight rain. Partly cloudy.17 mph87%29.98 "HgN/A
2:50 AM48 °FLight rain. Passing clouds.12 mph87%29.98 "HgN/A
1:50 AM46 °FLight rain. Partly cloudy.15 mph100%29.95 "HgN/A
1:20 AM48 °FLight rain. Partly cloudy.17 mph94%29.95 "Hg6 mi
12:50 AM48 °FRain. Passing clouds.24 mph94%29.92 "Hg5 mi
11:50 PM
Sun, Nov 29
52 °FLight rain. Passing clouds.29 mph82%29.86 "HgN/A
11:20 PM52 °FPartly cloudy.26 mph82%29.86 "HgN/A
10:20 PM54 °FLight rain. Partly cloudy.31 mph77%29.83 "HgN/A
9:50 PM52 °FLight rain. Passing clouds.16 mph82%29.83 "HgN/A
8:50 PM52 °FLight rain. Passing clouds.15 mph82%29.83 "HgN/A
8:20 PM52 °FLight rain. Passing clouds.21 mph82%29.83 "HgN/A
7:50 PM52 °FLight rain. Passing clouds.14 mph77%29.86 "HgN/A
7:20 PM52 °FPassing clouds.21 mph77%29.86 "HgN/A
6:50 PM54 °FPartly cloudy.24 mph72%29.86 "HgN/A
6:20 PM52 °FPartly cloudy.25 mph77%29.86 "HgN/A
5:50 PM54 °FPassing clouds.13 mph72%29.83 "HgN/A
5:20 PM52 °FPartly cloudy.15 mph77%29.83 "HgN/A
4:50 PM52 °FLight rain. Passing clouds.13 mph77%29.83 "HgN/A
4:20 PM52 °FBroken clouds.13 mph77%29.83 "HgN/A
3:50 PM52 °FBroken clouds.23 mph77%29.83 "HgN/A
3:20 PM50 °FBroken clouds.12 mph88%29.83 "HgN/A
2:50 PM50 °FLight rain. Mostly cloudy.16 mph88%29.83 "HgN/A
2:20 PM50 °FLight rain. Partly sunny.12 mph88%29.83 "HgN/A
1:50 PM50 °FRain. Mostly cloudy.14 mph88%29.83 "HgN/A
1:20 PM50 °FLight rain. Partly sunny.15 mph82%29.86 "HgN/A
12:50 PM52 °FLight rain. More clouds than sun.17 mph77%29.86 "HgN/A
12:20 PM52 °FMostly cloudy.10 mph77%29.89 "HgN/A
11:50 AM50 °FMore clouds than sun.17 mph82%29.86 "HgN/A
11:20 AM50 °FMore clouds than sun.18 mph82%29.86 "HgN/A
10:50 AM50 °FMore clouds than sun.18 mph82%29.86 "HgN/A
10:20 AM46 °FPartly sunny.12 mph93%29.86 "HgN/A
9:50 AM46 °FLight rain. Broken clouds.12 mph93%29.86 "HgN/A
9:20 AM46 °FLight rain. Partly sunny.13 mph93%29.86 "HgN/A
Weather by CustomWeather, © 2015

See weather overviewHow to use our weather pages